Location: Gwatt
(46.7204°N, 7.6223°E)
Time: 08:01:11
(UTC+00:00)

S-56A Canister/Altair - Pass Details

Date: 25 January 2021
Orbit: 632 x 2501 km, 38.9° (Epoch: 08 March)

Event Time Altitude Azimuth Distance (km) Brightness Sun altitude
Rises 06:37:03 0° 264° (W) 3,075 - -4.6°
Exits shadow 06:37:19 - 262° (W) 2,989 10.0 -4.6°
Reaches altitude 10° 06:39:55 10° 243° (WSW) 2,309 9.6 -4.2°
Maximum altitude 06:43:25 18° 202° (SSW) 2,049 9.8 -3.6°
Drops below altitude 10° 06:47:39 10° 162° (SSE) 2,882 11.2 -3.0°
Sets 06:51:52 0° 145° (SE) 4,208 12.5 -2.3°
